Погода в Верхней Видлице

Россия / Республика Карелия     61°11′24″N   32°28′23″E
темп.,
°C
ветер,
м/с
пор.,
м/с
влажн.,
%
обл.,
%
осадки,
мм/ч
давл.,
гПа
погр.,
м
9 марта, вт
вт900:00−22ссв24978 0.0 101881
03:00−25ссв22975 0.0 101929
06:00−27св23974 0.0 102153
09:00−25св25942 0.0 1022172
12:00−19св24850 0.0 1024374
15:00−16св24840 0.0 1025486
18:00−18св239223 0.0 102663
21:00−23всв239511 0.0 102839
10 марта, ср
ср1000:00−25всв12920 0.0 102919
03:00−26св11900 0.0 103019
06:00−26св11890 0.0 103019
09:00−22св00840 0.0 103227
12:00−15з127439 0.0 1031283
15:00−12з227533 0.0 1031410
18:00−14зюз12901 0.0 103120
21:00−19зюз00931 0.0 103120
11 марта, чт
чт1100:00−19ююв11940 0.0 103120
03:00−20ююв23910 0.0 103028
06:00−21юв23890 0.0 102953
09:00−18ююв39880 0.0 1027282
12:00−12ю410770 0.0 1025454
15:00−9ю511760 0.0 1023624
18:00−9ю4109488 0.2 1020559
21:00−10ю4119494 0.4 1019516
12 марта, пт
пт1200:00−10ю41194100 0.1 1018506
03:00−9ю51194100 0.2 1015538
06:00−9ю51394100 0.1 1014593
09:00−10ю61392100 0.3 1012617
12:00−7ю61386100 0.1 1010748
15:00−4ю7148195 0.1 1009961
18:00−4ю6148182 0.0 10071074
21:00−4ю7158491 0.1 10061038
13 марта, сб
сб1300:00−5ю71494100 0.6 1005948
03:00−4ю61394100 2.1 1003920
06:00−5ю61295100 1.7 1002785
09:00−4ю61295100 3.1 1001610
12:00−2ю61394100 1.0 1001595
15:000ююз71397100 1.7 1001919
18:00+1ююз61295100 0.3 1000786
21:00+1ююз51297100 0.5 1000678